Anchorage, AK

1:28 AM AKDT on March 30, 2017 (GMT -0800)
Ted Stevens Anchorage Int'l Airport

Weather History for PANC - December, 2013

Change the Weather History Date:

Monday, December 9, 2013

  Actual Average Record
Temperature  
Mean Temperature 29 °F 20 °F  
Max Temperature 31 °F 25 °F 48 °F (2005)
Min Temperature 27 °F 14 °F -20 °F (1966)
Degree Days  
Heating Degree Days 36    
Month to date heating degree days 394  
Since 1 July heating degree days 3204  
Cooling Degree Days 0    
Month to date cooling degree days 0  
Year to date cooling degree days 21  
Moisture  
Dew Point 28 °F    
Average Humidity 93    
Maximum Humidity 100    
Minimum Humidity 85    
Precipitation  
Precipitation T in 0.04 in 0.48 in (1986)
Month to date precipitation 0.06 0.34  
Year to date precipitation 24.43 15.81  
Snow  
Snow T in 0.60 in 4.30 in (2008)
Month to date snowfall 0.2 5.0  
Since 1 July snowfall 11.4 26.4  
Snow Depth 7.00 in    
Sea Level Pressure  
Sea Level Pressure 30.31 in    
Wind  
Wind Speed 3 mph (NNE)    
Max Wind Speed 10 mph    
Max Gust Speed -    
Visibility 7 miles    
Events Snow    
T = Trace of Precipitation, MM = Missing Value Source: NWS Daily Summary

Daily Weather History Graph

Daily Weather History Graph

Search for Another Location

Airport or City:

Trip Planner

Search our weather history database for the weather conditions in past years. The results will help you decide how hot, cold, wet, or windy it might be!

Date:

Astronomy

Dec. 09, 2013 Rise Set
Actual Time 10:01 AM AKST 3:43 PM AKST
Civil Twilight 9:00 AM AKST 4:44 PM AKST
Nautical Twilight 8:02 AM AKST 5:42 PM AKST
Astronomical Twilight 7:08 AM AKST 6:36 PM AKST
Moon 1:09 PM AKST (12/9) 12:24 AM AKST (12/9)
Length of Visible Light 7h 43m
Length of Day
5h 42m
First Quarter, 52% of the Moon is Illuminated
Dec 9
First Quarter
Dec 17
Full
Dec 25
Last Quarter
Jan 1
New
Jan 7
First Quarter

Hourly Weather History & Observations

Time (AKST) Temp. Windchill Dew Point Humidity Pressure Visibility Wind Dir Wind Speed Gust Speed Precip Events Conditions
12:43 AM 28.4 °F - 28.4 °F 100% 30.38 in 10.0 mi Calm Calm - N/A   Overcast
12:53 AM 28.9 °F 25.2 °F 28.0 °F 96% 30.39 in 10.0 mi SE 3.5 mph - N/A   Overcast
1:11 AM 28.4 °F 23.3 °F 26.6 °F 93% 30.38 in 10.0 mi ESE 4.6 mph - N/A   Overcast
1:53 AM 28.0 °F 22.8 °F 27.0 °F 96% 30.38 in 10.0 mi NNW 4.6 mph - N/A   Overcast
2:53 AM 28.0 °F 20.8 °F 27.0 °F 96% 30.37 in 10.0 mi NE 6.9 mph - N/A   Overcast
3:07 AM 28.4 °F 24.6 °F 26.6 °F 93% 30.36 in 10.0 mi NE 3.5 mph - N/A   Overcast
3:53 AM 28.9 °F 23.9 °F 27.0 °F 92% 30.36 in 10.0 mi ENE 4.6 mph - N/A   Overcast
4:53 AM 28.9 °F 21.9 °F 27.0 °F 92% 30.35 in 10.0 mi NE 6.9 mph - N/A   Overcast
5:53 AM 28.9 °F 19.8 °F 27.0 °F 92% 30.33 in 10.0 mi NE 10.4 mph - N/A   Overcast
6:53 AM 28.9 °F 25.2 °F 27.0 °F 92% 30.33 in 10.0 mi West 3.5 mph - N/A   Overcast
7:53 AM 28.9 °F - 27.0 °F 92% 30.33 in 10.0 mi Calm Calm - N/A   Overcast
8:53 AM 30.0 °F - 27.0 °F 88% 30.33 in 10.0 mi Calm Calm - N/A   Overcast
9:53 AM 30.0 °F - 27.0 °F 88% 30.33 in 10.0 mi Calm Calm - N/A   Overcast
10:53 AM 30.0 °F 26.5 °F 28.0 °F 92% 30.34 in 10.0 mi NNW 3.5 mph - N/A   Overcast
11:17 AM 30.2 °F 25.4 °F 28.4 °F 93% 30.33 in 10.0 mi North 4.6 mph - N/A   Overcast
11:53 AM 30.0 °F 26.5 °F 28.0 °F 92% 30.33 in 10.0 mi North 3.5 mph - N/A   Overcast
12:36 PM 30.2 °F 26.7 °F 28.4 °F 93% 30.32 in 10.0 mi NNW 3.5 mph - N/A   Overcast
12:53 PM 30.0 °F - 28.0 °F 92% 30.32 in 10.0 mi Calm Calm - N/A   Overcast
12:56 PM 30.2 °F 26.7 °F 28.4 °F 93% 30.32 in 10.0 mi NNW 3.5 mph - N/A   Overcast
1:53 PM 30.0 °F 26.5 °F 28.0 °F 92% 30.32 in 6.0 mi NE 3.5 mph - 0.00 in Snow Light Snow
2:00 PM 30.2 °F 26.7 °F 28.4 °F 93% 30.30 in 6.0 mi NE 3.5 mph - 0.00 in Snow Light Snow
2:13 PM 30.2 °F 26.7 °F 28.4 °F 93% 30.30 in 6.0 mi NE 3.5 mph - 0.00 in   Overcast
2:53 PM 30.9 °F - 28.0 °F 89% 30.30 in 10.0 mi Calm Calm - 0.00 in   Overcast
3:39 PM 30.2 °F - 28.4 °F 93% 30.27 in 10.0 mi Calm Calm - N/A   Overcast
3:53 PM 30.9 °F - 30.0 °F 96% 30.28 in 10.0 mi Calm Calm - N/A   Overcast
4:42 PM 30.2 °F - 30.2 °F 100% 30.26 in 2.0 mi Calm Calm - 0.00 in Snow Light Snow
4:53 PM 30.9 °F - 30.0 °F 96% 30.27 in 2.0 mi Calm Calm - 0.00 in Snow Light Freezing Drizzle
5:20 PM 30.2 °F - 30.2 °F 100% 30.26 in 2.0 mi Calm Calm - 0.00 in   Light Freezing Drizzle
5:47 PM 30.2 °F 26.7 °F 30.2 °F 100% 30.26 in 2.0 mi North 3.5 mph - 0.00 in   Overcast
5:53 PM 30.9 °F - 30.0 °F 96% 30.27 in 2.0 mi Calm Calm - 0.00 in   Overcast
6:53 PM 30.9 °F - 30.0 °F 96% 30.26 in 2.0 mi Calm Calm - N/A   Overcast
7:00 PM 30.2 °F 26.7 °F 30.2 °F 100% 30.25 in 2.0 mi North 3.5 mph - 0.00 in   Light Freezing Drizzle
7:53 PM 30.9 °F 27.5 °F 30.0 °F 96% 30.25 in 2.5 mi NNE 3.5 mph - 0.00 in   Light Freezing Drizzle
8:17 PM 30.2 °F 26.7 °F 30.2 °F 100% 30.23 in 2.0 mi North 3.5 mph - 0.00 in   Overcast
8:53 PM 30.9 °F - 30.0 °F 96% 30.25 in 2.0 mi Calm Calm - 0.00 in   Overcast
9:53 PM 30.0 °F 26.5 °F 30.0 °F 100% 30.24 in 2.5 mi North 3.5 mph - N/A   Overcast
10:53 PM 30.0 °F - 30.0 °F 100% 30.23 in 2.0 mi Calm Calm - N/A   Overcast
11:53 PM 30.0 °F 26.5 °F 28.9 °F 96% 30.22 in 2.0 mi NNW 3.5 mph - N/A   Overcast